Orbital elements of PRISMA
| Launched | 21 March 2019 |
| Flight ended | – |
| Launch site | Europe's Spaceport, Kourou, French Guiana |
| Owner | Italy |
| NORAD ID | 44072 |
| Date fetched |
Epoch osculation |
Inc. [°] |
Ecc. | RA asc node [hr] |
Arg Peri. [°] |
Mean anom [°] |
Mean motion [rev/day] |
Abs. mag |
| Date fetched |
Epoch osculation |
Inc. [°] |
Ecc. | RA asc node [hr] |
Arg Peri. [°] |
Mean anom [°] |
Mean motion [rev/day] |
Abs. mag |
| 2026 May 03 17:57 | 2026 May 03 11:52:11 | 97.8655 | 0.00012 | 13.2619 | 85.3589 | 274.7765 | 14.83676 | – |
| 2026 May 02 17:57 | 2026 May 02 11:35:27 | 97.8657 | 0.00012 | 13.1955 | 82.3592 | 274.7765 | 14.83676 | – |
| 2026 May 01 17:56 | 2026 May 01 11:18:42 | 97.8659 | 0.00012 | 13.1290 | 80.4392 | 274.7765 | 14.83676 | – |
| 2026 Apr 30 17:56 | 2026 Apr 30 12:39:05 | 97.8660 | 0.00013 | 13.0670 | 80.9461 | 274.7765 | 14.83676 | – |
| 2026 Apr 29 17:57 | 2026 Apr 29 05:53:53 | 97.8656 | 0.00013 | 12.9828 | 81.5470 | 274.7765 | 14.83676 | – |
| 2026 Apr 28 17:56 | 2026 Apr 28 12:05:36 | 97.8656 | 0.00013 | 12.9341 | 82.1314 | 274.7765 | 14.83676 | – |
| 2026 Apr 27 17:58 | 2026 Apr 27 11:48:51 | 97.8653 | 0.00013 | 12.8677 | 81.6748 | 274.7765 | 14.83676 | – |
| 2026 Apr 26 17:58 | 2026 Apr 26 11:32:06 | 97.8652 | 0.00012 | 12.8012 | 79.4728 | 274.7765 | 14.83676 | – |
| 2026 Apr 25 17:58 | 2026 Apr 25 11:15:21 | 97.8652 | 0.00013 | 12.7348 | 79.3941 | 274.7765 | 14.83676 | – |
| 2026 Apr 24 17:59 | 2026 Apr 24 12:35:43 | 97.8653 | 0.00014 | 12.6727 | 79.4387 | 274.7765 | 14.83676 | – |
| 2026 Apr 23 17:57 | 2026 Apr 23 05:50:30 | 97.8651 | 0.00013 | 12.5885 | 81.0648 | 274.7765 | 14.83676 | – |
| 2026 Apr 22 17:57 | 2026 Apr 22 07:10:52 | 97.8653 | 0.00013 | 12.5265 | 81.4489 | 274.7765 | 14.83676 | – |
| 2026 Apr 21 17:57 | 2026 Apr 21 11:45:28 | 97.8656 | 0.00013 | 12.4734 | 79.0941 | 274.7765 | 14.83676 | – |
| 2026 Apr 20 17:57 | 2026 Apr 20 11:28:43 | 97.8660 | 0.00013 | 12.4069 | 77.8890 | 274.7765 | 14.83676 | – |
| 2026 Apr 19 17:58 | 2026 Apr 19 11:11:57 | 97.8664 | 0.00014 | 12.3405 | 78.2882 | 274.7765 | 14.83676 | – |
| 2026 Apr 18 17:56 | 2026 Apr 18 07:40:58 | 97.8668 | 0.00014 | 12.2651 | 79.7297 | 274.7765 | 14.83676 | – |
| 2026 Apr 16 17:57 | 2026 Apr 16 07:07:26 | 97.8668 | 0.00014 | 12.1322 | 79.7635 | 274.7765 | 14.83676 | – |
| 2026 Apr 14 17:57 | 2026 Apr 14 11:25:16 | 97.8668 | 0.00014 | 12.0126 | 76.8703 | 274.7765 | 14.83676 | – |
| 2026 Apr 13 17:57 | 2026 Apr 13 06:17:09 | 97.8665 | 0.00015 | 11.9329 | 78.7827 | 274.7765 | 14.83676 | – |
| 2026 Apr 12 17:57 | 2026 Apr 11 15:26:20 | 97.8665 | 0.00015 | 11.8265 | 89.3505 | 274.7765 | 14.83676 | – |
| 2026 Apr 11 17:57 | 2026 Apr 11 12:12:06 | 97.8665 | 0.00015 | 11.8177 | 89.4824 | 274.7765 | 14.83676 | – |
| 2026 Apr 10 17:58 | 2026 Apr 10 07:04:03 | 97.8663 | 0.00014 | 11.7379 | 90.2495 | 274.7765 | 14.83676 | – |
| 2026 Apr 09 18:01 | 2026 Apr 09 06:47:20 | 97.8666 | 0.00014 | 11.6714 | 88.5217 | 274.7765 | 14.83676 | – |
| 2026 Apr 08 17:57 | 2026 Apr 08 06:30:37 | 97.8668 | 0.00014 | 11.6050 | 86.8133 | 274.7765 | 14.83676 | – |
| 2026 Apr 07 17:57 | 2026 Apr 07 06:13:54 | 97.8671 | 0.00014 | 11.5385 | 87.3864 | 274.7765 | 14.83676 | – |
| 2026 Apr 06 17:57 | 2026 Apr 06 05:57:10 | 97.8673 | 0.00015 | 11.4720 | 88.0852 | 274.7765 | 14.83676 | – |